Precipitable_Water
0.80 0.84 0.93 0.98 0.99 0.97 0.97 0.99 0.98 1.08 1.17 1.19 1.19 1.19 1.16 1.13 1.07 1.02 0.93 0.87 0.83 0.81 0.78 0.74 0.73 0.70 0.68 0.62 0.58 0.58 0.53 0.48
0.85 0.91 0.92 0.95 1.01 1.01 0.97 0.90 1.01 1.12 1.14 1.10 1.08 1.04 1.06 1.02 1.01 0.94 0.88 0.86 0.84 0.79 0.75 0.73 0.71 0.68 0.64 0.62 0.60 0.55 0.51 0.51
0.72 0.83 0.90 0.92 0.96 0.99 1.00 0.98 1.07 1.13 1.14 1.13 1.09 1.07 1.06 1.02 0.96 0.91 0.87 0.83 0.81 0.75 0.72 0.70 0.68 0.63 0.61 0.61 0.59 0.54 0.52 0.52
0.64 0.71 0.81 0.85 0.88 0.92 0.95 1.02 1.12 1.15 1.18 1.18 1.17 1.10 1.06 0.95 0.87 0.82 0.81 0.80 0.74 0.76 0.76 0.69 0.65 0.63 0.62 0.64 0.64 0.57 0.50 0.52
0.68 0.73 0.81 0.84 0.87 0.98 1.01 1.06 1.15 1.25 1.22 1.18 1.10 1.01 0.90 0.81 0.79 0.78 0.76 0.79 0.81 0.80 0.73 0.69 0.68 0.68 0.69 0.71 0.68 0.57 0.52 0.45
0.70 0.75 0.83 0.93 1.01 1.05 1.09 1.16 1.22 1.22 1.18 1.17 1.09 0.94 0.80 0.77 0.77 0.74 0.78 0.81 0.80 0.75 0.72 0.73 0.69 0.65 0.70 0.67 0.61 0.57 0.52 0.45
0.72 0.82 0.90 0.94 1.08 1.14 1.19 1.21 1.16 1.17 1.18 1.15 1.01 0.87 0.76 0.72 0.73 0.74 0.78 0.77 0.79 0.81 0.76 0.75 0.76 0.79 0.68 0.59 0.56 0.49 0.41 0.40
0.75 0.81 0.88 1.01 1.12 1.14 1.14 1.16 1.09 1.13 1.13 1.01 1.01 0.95 0.81 0.75 0.76 0.76 0.75 0.73 0.77 0.83 0.72 0.83 0.83 0.69 0.59 0.51 0.45 0.38 0.37 0.37
0.81 0.89 0.96 1.07 1.14 1.10 1.10 1.06 0.98 1.03 0.99 1.00 0.99 0.93 0.83 0.82 0.81 0.80 0.82 0.78 0.83 0.82 0.85 0.75 0.61 0.56 0.50 0.47 0.41 0.37 0.39 0.41
0.77 0.86 0.96 1.05 1.02 1.05 0.99 0.89 0.91 0.92 0.93 0.94 0.90 0.89 0.85 0.80 0.81 0.86 0.83 0.87 0.92 0.88 0.71 0.62 0.51 0.49 0.49 0.45 0.40 0.41 0.45 0.45
0.72 0.81 0.91 0.96 0.96 0.93 0.87 0.87 0.84 0.84 0.84 0.83 0.84 0.87 0.84 0.84 0.85 0.86 0.87 0.89 0.84 0.70 0.58 0.56 0.51 0.46 0.46 0.45 0.48 0.48 0.45 0.42
0.65 0.77 0.88 0.85 0.86 0.84 0.82 0.83 0.80 0.74 0.75 0.78 0.81 0.83 0.83 0.84 0.81 0.87 0.89 0.82 0.68 0.60 0.53 0.51 0.47 0.47 0.50 0.53 0.49 0.43 0.39 0.38
0.70 0.76 0.77 0.78 0.80 0.85 0.82 0.83 0.81 0.82 0.86 0.86 0.81 0.82 0.83 0.81 0.90 0.85 0.71 0.67 0.60 0.55 0.52 0.48 0.45 0.52 0.54 0.44 0.39 0.40 0.38 0.37
0.71 0.75 0.75 0.78 0.83 0.86 0.82 0.81 0.82 0.89 0.91 0.87 0.86 0.87 0.85 0.81 0.73 0.68 0.61 0.55 0.55 0.52 0.49 0.49 0.52 0.47 0.45 0.43 0.39 0.38 0.37 0.36
0.66 0.73 0.79 0.85 0.91 0.94 0.89 0.87 0.91 0.94 0.91 0.88 0.86 0.83 0.79 0.69 0.59 0.55 0.56 0.55 0.50 0.51 0.53 0.51 0.48 0.44 0.40 0.39 0.38 0.36 0.35 0.34
0.63 0.70 0.78 0.85 0.89 0.88 0.91 0.92 0.92 0.94 0.90 0.87 0.78 0.71 0.60 0.54 0.52 0.54 0.52 0.51 0.55 0.57 0.51 0.46 0.42 0.38 0.37 0.36 0.34 0.33 0.32 0.30
0.60 0.69 0.74 0.77 0.85 0.86 0.85 0.87 0.93 0.93 0.86 0.73 0.65 0.57 0.52 0.51 0.53 0.54 0.54 0.60 0.55 0.48 0.43 0.38 0.35 0.33 0.33 0.32 0.31 0.30 0.29 0.27
0.59 0.65 0.72 0.75 0.77 0.79 0.84 0.87 0.87 0.76 0.66 0.57 0.53 0.51 0.52 0.54 0.55 0.57 0.58 0.48 0.45 0.40 0.37 0.33 0.29 0.27 0.27 0.28 0.30 0.29 0.28 0.28
0.59 0.62 0.71 0.75 0.79 0.79 0.77 0.70 0.63 0.56 0.53 0.52 0.53 0.56 0.56 0.57 0.57 0.56 0.48 0.44 0.40 0.36 0.31 0.28 0.26 0.25 0.26 0.27 0.29 0.29 0.29 0.28
Wind_Speed
12 14 14 13 13 12 12 11 10 9 9 8 6 6 6 6 7 8 9 10 10 11 13 14 17 19 22 24 25 26 27 29
11 12 13 13 13 13 12 11 11 11 9 8 8 8 8 9 10 10 11 12 13 14 15 17 20 22 24 26 27 28 30 31
12 12 12 13 12 12 12 12 12 11 11 10 9 9 10 11 11 12 13 14 14 16 18 21 22 24 26 28 29 30 31 33
13 13 13 13 14 14 14 14 14 13 12 11 10 11 12 13 13 15 15 15 17 19 21 23 24 26 28 30 31 33 34 35
14 13 13 14 16 16 16 16 15 15 13 13 13 14 14 15 15 16 16 18 20 22 23 24 26 29 31 32 33 34 36 37
16 16 15 15 14 15 16 16 16 16 15 15 15 14 15 15 16 17 18 20 22 23 25 26 28 31 33 34 35 36 38 39
16 16 15 15 15 15 16 16 17 17 17 17 16 16 16 17 18 19 21 23 24 24 26 29 31 35 36 36 37 39 40 40
16 16 14 15 15 15 15 16 17 19 18 17 18 18 19 19 21 22 23 24 25 25 30 33 36 38 37 38 40 41 41 42
18 17 16 15 15 14 14 16 17 17 17 18 19 20 21 22 23 24 26 26 26 30 34 37 36 37 39 40 41 42 42 43
18 17 17 16 15 16 16 15 15 17 19 20 20 21 22 22 22 24 26 28 31 33 37 36 38 38 40 41 42 43 43 43
16 17 17 16 16 15 15 16 17 18 18 19 20 20 22 23 24 27 29 31 32 35 38 38 39 40 41 42 43 43 43 43
15 16 17 16 15 15 16 17 17 17 18 18 19 21 22 25 27 29 30 34 35 38 39 39 41 42 42 43 42 43 43 45
14 15 16 16 17 17 17 18 18 19 19 19 20 21 24 27 31 31 34 35 37 38 39 41 42 42 43 43 43 44 45 46
16 16 18 19 19 19 18 18 19 19 19 20 22 24 27 30 31 33 34 36 37 39 41 42 42 42 43 43 43 44 46 48
18 19 19 20 20 20 20 19 20 19 21 23 26 28 30 31 33 34 35 37 38 41 41 42 42 42 43 43 44 45 46 48
19 20 20 20 20 20 21 21 21 22 24 26 28 30 31 31 33 34 36 38 40 41 40 41 42 42 43 43 45 46 48 49
19 20 20 20 21 21 22 22 22 24 25 27 29 29 30 32 34 36 38 41 39 39 40 41 42 43 44 44 45 46 48 48
18 18 19 19 20 20 20 21 22 25 26 27 28 29 31 34 36 38 40 39 40 40 41 42 43 44 44 45 45 46 48 48
16 17 17 18 17 17 19 22 23 24 25 26 28 31 34 36 38 39 39 40 40 40 41 42 44 45 45 45 46 47 47 47
Wind_Direction
169 178 183 182 180 182 183 186 192 197 202 213 231 242 249 248 256 268 277 284 288 292 296 299 302 304 305 306 306 307 307 307
180 183 186 187 189 193 196 199 203 206 214 227 237 242 251 262 267 274 280 283 288 293 297 300 303 305 305 306 306 306 306 308
185 189 191 196 202 207 209 212 216 222 227 232 243 250 262 269 271 277 282 283 287 293 299 301 302 305 306 306 306 306 307 308
196 201 207 211 214 217 218 223 225 227 231 239 249 261 269 270 274 281 283 284 289 294 300 302 303 305 306 307 307 306 307 308
210 212 218 222 225 226 228 229 228 229 239 248 258 267 270 272 277 281 283 287 292 296 299 301 305 306 305 306 307 306 307 307
220 223 227 227 227 228 228 229 232 236 248 256 262 267 272 275 278 280 285 290 293 299 298 299 305 307 305 305 305 305 307 306
230 231 233 230 232 229 231 234 239 245 254 258 259 267 273 277 279 282 286 292 292 294 302 300 301 308 307 305 305 306 306 306
228 227 231 232 233 234 236 241 249 255 255 254 262 270 274 278 280 284 286 292 293 291 305 302 304 306 306 306 306 306 306 306
228 231 233 235 236 239 247 255 256 251 251 258 268 272 276 280 282 285 287 292 290 295 305 304 305 304 305 307 307 307 307 308
224 227 231 234 243 250 256 252 249 252 258 264 270 274 279 283 287 284 300 294 292 297 304 304 305 305 306 306 306 307 307 307
225 228 232 241 247 252 252 250 251 258 261 266 272 276 282 285 288 291 293 296 294 299 304 302 304 305 305 305 306 305 306 306
227 229 235 242 247 251 252 254 256 260 262 267 274 279 284 286 292 291 294 298 295 298 301 302 303 304 304 305 305 305 305 306
234 233 237 244 250 256 256 258 258 260 263 271 277 280 285 291 291 294 294 297 297 299 300 302 303 303 304 304 305 305 305 306
244 245 246 250 254 257 261 261 264 262 265 274 280 286 290 295 296 297 298 299 299 302 302 302 304 304 304 305 305 306 306 307
248 251 253 258 260 258 260 262 263 262 272 278 284 288 292 294 296 298 300 301 302 303 303 304 304 304 305 305 305 306 307 308
252 254 259 260 259 260 259 262 265 267 276 282 286 291 293 295 298 299 301 302 304 304 304 305 305 305 305 305 306 307 308 309
257 257 260 261 258 261 261 265 267 273 279 285 289 292 294 297 299 301 302 304 304 304 305 305 306 306 306 306 306 307 308 309
262 263 263 264 264 264 263 267 272 278 283 287 290 292 296 298 300 302 304 304 304 304 304 305 306 307 307 307 307 308 309 309
269 269 267 266 267 266 269 274 278 282 285 288 291 294 298 300 302 303 303 303 303 304 305 306 306 307 307 307 307 308 309 309